This is the latest recevied weather packets stored in our database for station/object N5COP-13. If no packets are shown the sender has not sent any weather packets the latest 10 day(s).
| Time | Temp. | Humidity | Pressure | Rain* | Wind** | Luminosity | Snow |
|---|---|---|---|---|---|---|---|
| 1777428375 | 21.11° C | 12% | 1013.6 hPa | 0 mm | - | 0 W/m² | - |
| 1777428070 | 21.11° C | 11% | 1013.4 hPa | 0 mm | - | 0 W/m² | - |
| 1777427766 | 21.11° C | 11% | 1013.4 hPa | 0 mm | - | 0 W/m² | - |
| 1777427459 | 21.67° C | 11% | 1013.3 hPa | 0 mm | - | 0 W/m² | - |
| 1777427153 | 22.22° C | 11% | 1013.2 hPa | 0 mm | - | 0 W/m² | - |
| 1777426851 | 22.22° C | 11% | 1013.1 hPa | 0 mm | - | 1 W/m² | - |
| 1777426548 | 22.78° C | 10% | 1012.8 hPa | 0 mm | - | 3 W/m² | - |
| 1777426244 | 23.89° C | 10% | 1012.8 hPa | 0 mm | - | 5 W/m² | - |
| 1777425939 | 24.44° C | 10% | 1012.8 hPa | 0 mm | - | 8 W/m² | - |
| 1777425634 | 25° C | 9% | 1012.7 hPa | 0 mm | - | 12 W/m² | - |
| 1777425330 | 25.56° C | 9% | 1012.5 hPa | 0 mm | - | 16 W/m² | - |
| 1777425027 | 26.11° C | 9% | 1012.4 hPa | 0 mm | - | 21 W/m² | - |
| 1777424722 | 26.11° C | 9% | 1012.6 hPa | 0 mm | - | 26 W/m² | - |
| 1777424419 | 26.67° C | 9% | 1012.5 hPa | 0 mm | - | 27 W/m² | - |
| 1777424115 | 26.67° C | 9% | 1012.5 hPa | 0 mm | - | 37 W/m² | - |
| 1777423812 | 27.22° C | 9% | 1012.4 hPa | 0 mm | - | 44 W/m² | - |
| 1777423509 | 27.22° C | 9% | 1012.3 hPa | 0 mm | - | 53 W/m² | - |
| 1777423203 | 27.78° C | 9% | 1012.4 hPa | 0 mm | - | 60 W/m² | - |
| 1777422902 | 27.78° C | 8% | 1012.3 hPa | 0 mm | - | 70 W/m² | - |
| 1777422598 | 27.78° C | 8% | 1012.2 hPa | 0 mm | - | 80 W/m² | - |
| 1777422295 | 27.78° C | 9% | 1012.3 hPa | 0 mm | - | 90 W/m² | - |
| 1777421994 | 27.78° C | 9% | 1012.3 hPa | 0 mm | - | 100 W/m² | - |
| 1777421683 | 27.78° C | 9% | 1012.2 hPa | 0 mm | - | 113 W/m² | - |
| 1777421378 | 27.78° C | 8% | 1012.2 hPa | 0 mm | - | 128 W/m² | - |
| 1777421075 | 28.33° C | 8% | 1012.2 hPa | 0 mm | - | 142 W/m² | - |
* Rain latest hour (hover to see other rain measurements)
** Current wind speed in m/s (hover to see current wind gust speed)